STARLINK-3098 (49442 NORAD) Tracking and Keplerian Element Data

This shows tracking and keplerian element data for the satellite.

Feedback or suggestion? Click here.




ElementValue
Catalog49442
NameSTARLINK-3098
Epoch Orbit370
Epoch Day15.91668981
Epoch Year2022
RAAN179.3517
Inclination53.2156
Eccentricity0.000294
Argument of Perigee12.816
Mean Anonmoly198.043
Mean Motion15.73234673
Decay Rate-0.00053589
L11 49442U 21104AL 22015.91668981 -.00053589 00000+0 -37916-3 0 9999
L22 49442 53.2156 179.3517 0002940 12.8160 198.0430 15.73234673 3709

Live tracking and technical data element details for STARLINK-3098 (NORAD 49442). STARLINK-3098 can be tracked NOW for your location showing map with azimuth and elevation plus other details from your city location.

Track the satellite on the map from your city or location and see movement details for azimuth, elevation, latitude, longitude, range, height, and movement on the map or in text.







IsCatalogInMostPopularTable: catalog: 49442, numindb: 7
Update: records affected: 1



GetName: 49442 STARLINK-3098

Hit Count: updated at: Thu, 20 Jan 2022 16:09:15 GMT